Wind_Speed
74 77 80 76 79 81 84 85 86 86 89 91 91 94 95 87 86 78 73 60 54 52 49 49 46 41 39 34 33 32 31 32 26 20 19 18 18 24 30 33 34 32 28 19 12
71 75 76 80 82 84 90 91 94 93 94 97 99 98 92 86 89 74 66 58 52 52 48 46 43 38 38 34 32 30 29 29 22 17 17 17 17 23 27 28 33 31 28 24 14
74 78 81 82 88 89 91 94 95 99 104 107 101 93 92 83 67 62 57 54 51 50 45 43 43 39 37 32 30 27 27 21 18 15 18 15 19 21 25 25 27 29 29 27 22
80 83 86 89 90 91 91 96 101 103 103 89 84 80 68 62 62 57 54 54 50 49 42 41 44 41 36 32 29 26 26 22 18 15 16 16 19 20 25 24 25 26 32 26 23
79 81 84 85 89 93 94 94 97 108 93 84 74 68 56 55 61 58 57 51 48 45 41 44 45 41 36 32 28 24 24 23 18 18 18 18 20 23 20 20 23 24 32 29 27
79 82 82 84 81 89 94 92 99 94 79 67 62 59 52 51 56 54 52 46 45 44 45 45 47 41 38 34 30 25 24 23 20 20 19 20 22 23 17 18 19 22 28 35 28
85 83 82 76 78 84 84 90 93 83 71 60 52 47 46 50 47 45 45 45 42 46 48 45 46 43 40 35 33 29 24 24 21 21 22 18 18 18 19 20 19 20 26 30 31
87 84 79 77 80 80 84 88 85 75 61 52 43 41 42 47 44 49 47 45 50 54 51 45 47 44 42 36 35 28 23 20 18 21 25 22 20 24 20 19 20 21 22 26 26
90 78 79 80 80 78 81 82 76 73 55 46 39 36 38 38 41 51 49 48 54 57 51 46 47 46 43 38 36 31 26 19 20 19 19 14 13 19 18 22 21 21 22 22 27
84 82 84 86 85 81 81 80 75 67 50 40 36 38 40 38 42 47 48 51 58 55 51 48 50 47 45 43 42 36 25 21 21 19 18 18 14 17 17 19 20 21 26 21 25
86 88 91 92 86 77 79 74 69 62 43 37 34 39 42 46 43 45 50 48 61 55 51 52 50 46 55 47 37 36 31 27 20 18 16 15 16 17 19 18 20 26 28 20 26
89 89 92 82 80 78 77 71 65 52 43 33 37 41 40 45 50 50 53 52 55 60 55 51 48 60 52 45 40 39 42 36 23 22 19 18 18 20 20 19 20 27 24 20 28
88 89 84 86 84 80 76 68 59 46 40 33 40 46 45 49 48 54 55 58 56 61 56 55 60 59 52 46 42 39 43 41 26 23 23 21 23 20 19 17 15 17 18 20 25
88 84 86 86 84 81 75 65 51 43 39 37 42 44 46 46 48 48 56 57 57 58 57 56 58 57 54 47 46 40 46 38 36 23 28 25 28 21 20 19 17 16 15 19 21
88 83 82 85 84 80 75 59 45 42 40 43 49 52 48 48 52 44 40 54 56 59 59 54 59 61 55 55 49 50 45 35 29 32 31 32 32 25 23 25 25 19 16 17 20
87 86 86 87 86 78 69 53 42 41 45 46 49 56 54 55 52 47 44 44 60 56 58 56 59 59 56 55 50 48 44 38 36 35 35 39 31 39 29 27 26 24 19 15 19
89 86 88 87 83 75 64 49 40 42 48 52 52 52 60 60 56 52 52 50 56 58 55 60 60 63 59 55 52 47 51 47 43 37 40 38 33 38 34 29 28 30 24 22 23
91 89 88 87 80 69 57 46 41 42 52 58 60 57 60 63 63 60 51 53 57 66 62 57 56 64 62 58 57 59 59 50 42 40 44 37 30 38 37 34 31 29 30 25 25
92 87 87 76 71 64 58 45 44 47 57 62 69 63 66 67 66 66 62 58 50 58 64 61 58 63 62 61 60 57 50 53 46 43 41 40 38 38 39 39 35 30 34 32 27
88 81 75 67 66 62 55 47 49 52 58 66 74 74 71 75 72 71 67 64 59 56 59 65 64 65 65 62 60 58 57 55 50 47 47 44 42 43 47 44 39 33 37 35 31
78 73 71 65 61 58 53 50 52 57 60 68 74 80 80 78 76 75 74 66 66 59 62 60 68 68 66 63 63 60 57 57 53 51 49 49 48 48 48 45 41 37 39 37 35
73 68 66 62 56 55 55 56 58 61 62 68 78 83 83 86 82 80 75 78 69 68 66 67 62 67 73 67 66 63 61 61 59 56 53 52 50 48 47 45 43 41 45 41 39
67 65 62 59 53 55 58 59 59 63 64 68 75 82 87 89 88 83 81 80 78 73 70 66 62 62 64 67 69 66 63 64 64 62 57 57 55 54 51 48 47 49 46 46 45
65 62 62 57 57 57 60 62 63 69 62 64 72 78 87 90 92 89 84 81 83 77 74 73 68 67 66 66 65 67 69 68 65 63 61 59 58 55 53 50 52 53 53 50 51
57 57 57 55 57 58 60 60 64 70 69 60 63 73 81 87 91 94 93 88 85 84 79 77 76 74 72 68 66 65 66 65 63 62 60 60 58 57 53 49 50 53 54 55 54
50 52 54 54 56 57 59 61 66 69 67 62 60 68 74 78 84 93 93 92 92 86 88 80 77 79 79 77 75 71 68 67 65 63 64 65 61 59 53 55 57 61 59 57 55
45 49 49 53 56 56 56 60 63 61 59 59 62 65 67 76 75 81 90 92 88 92 91 85 83 80 78 82 78 77 73 70 65 62 61 60 64 65 65 64 63 63 63 58 57
Wind_Direction
275 275 275 278 288 287 285 287 285 287 287 288 289 289 291 288 285 284 282 274 273 271 265 271 273 250 256 254 261 268 279 279 262 256 275 286 297 301 320 329 331 333 328 333 325
274 285 287 288 288 288 288 288 287 287 288 287 287 287 286 285 284 277 272 267 266 267 264 265 251 239 250 248 256 266 279 268 244 252 263 284 287 305 326 331 341 336 334 337 345
283 283 284 285 287 289 291 289 288 288 286 287 286 286 281 282 271 268 261 255 255 262 252 251 238 237 242 245 249 263 264 242 237 248 266 272 288 311 325 327 343 350 340 339 337
283 285 289 287 287 287 288 289 288 289 289 292 287 284 280 269 264 259 253 250 251 250 242 234 229 231 236 242 244 259 243 228 239 253 255 269 292 312 325 325 336 354 354 342 341
288 290 287 286 289 288 288 288 289 289 294 291 286 279 269 262 256 255 247 246 246 234 226 219 229 226 228 238 237 243 240 224 228 241 253 267 286 303 315 331 345 353 0 353 344
286 288 288 288 288 284 284 288 289 291 300 290 281 273 264 258 249 247 242 240 231 228 210 221 223 224 226 231 229 240 229 227 233 246 260 272 289 283 297 324 338 351 358 360 345
282 287 288 286 291 288 288 289 288 297 297 293 279 267 255 245 239 235 230 224 222 213 213 217 219 222 221 226 226 232 233 230 232 243 248 261 280 279 288 307 322 349 354 356 358
284 288 289 290 294 294 294 293 295 302 300 291 275 262 249 235 214 215 219 219 214 205 209 213 214 218 219 221 224 225 229 226 238 250 251 265 271 276 282 294 309 333 348 355 355
286 288 292 295 296 299 296 295 300 304 297 289 274 253 234 215 206 216 216 217 213 205 209 211 214 217 218 218 219 217 222 216 235 245 244 257 267 271 281 282 305 325 336 349 347
286 292 293 295 296 297 296 295 302 303 293 284 261 239 216 211 210 213 217 215 211 204 208 212 213 217 219 217 219 219 219 236 221 239 247 258 271 282 287 278 301 315 324 341 345
288 289 292 294 294 295 295 299 301 300 284 274 251 226 216 208 208 217 211 212 211 203 209 211 210 214 219 218 221 221 223 236 221 229 246 274 270 285 286 278 292 309 319 330 344
286 289 293 292 293 294 294 298 301 289 274 258 234 214 204 208 210 209 207 215 214 204 213 210 209 217 219 219 218 218 233 236 219 232 243 269 269 272 298 280 288 303 315 330 338
285 288 289 291 293 293 294 297 296 276 261 248 220 210 207 210 218 216 212 215 215 206 211 210 212 217 219 218 220 226 232 235 228 231 242 254 272 271 287 294 290 311 321 331 332
283 286 289 288 289 292 294 295 287 262 250 235 212 214 217 217 216 217 223 222 217 210 211 211 219 219 220 220 223 227 235 233 231 228 242 253 262 274 275 280 293 312 315 332 330
283 285 286 289 289 289 291 289 274 251 239 224 214 216 218 215 217 214 223 227 220 216 208 214 223 224 219 221 221 229 231 234 237 229 239 251 263 270 273 274 281 292 315 329 333
282 284 286 285 285 287 286 281 260 244 231 219 218 215 213 217 216 214 216 227 221 218 214 216 225 227 225 226 227 229 234 237 239 236 236 246 254 270 273 269 274 280 295 311 332
282 283 283 283 284 283 280 272 251 238 229 216 214 220 218 213 211 215 217 220 223 218 216 220 227 224 226 229 231 235 236 237 239 233 237 241 253 265 269 268 270 277 282 296 310
278 278 280 280 279 277 273 264 244 230 227 216 211 216 216 209 211 211 212 227 224 221 219 222 226 223 225 226 226 230 233 236 232 229 239 243 249 261 265 267 269 275 273 282 302
274 275 277 276 273 271 268 257 239 225 223 218 210 211 215 212 216 215 213 210 222 224 224 224 226 225 225 226 226 225 226 234 228 229 235 236 237 251 264 262 265 275 271 277 300
272 272 269 268 267 265 262 250 237 223 222 220 214 212 214 216 216 216 212 216 214 221 222 225 224 224 225 229 232 231 227 228 226 228 231 235 239 243 253 260 261 264 271 270 292
267 266 263 261 259 258 254 243 237 227 220 219 218 214 213 217 218 217 214 214 216 216 221 224 224 225 227 230 233 232 229 229 230 234 237 238 243 245 249 255 260 261 268 266 282
262 261 259 256 251 247 244 241 236 234 221 220 217 217 215 215 218 219 218 216 215 214 219 225 226 227 228 230 233 235 232 234 238 238 239 238 236 236 245 252 256 257 256 259 278
257 255 254 253 247 241 238 239 237 239 230 219 219 219 217 216 218 219 221 218 217 216 217 218 223 226 229 230 231 232 234 237 239 242 241 238 233 233 237 244 250 251 252 260 274
255 254 253 249 245 240 237 235 236 240 236 228 222 220 221 218 216 219 219 220 217 219 218 218 216 222 226 228 232 235 236 238 239 241 240 239 237 230 235 241 248 250 257 260 270
255 252 250 246 242 239 238 235 236 237 240 231 226 224 222 223 218 218 221 219 219 220 222 221 220 222 225 227 229 231 233 236 240 242 239 239 234 236 238 242 250 255 263 268 269
249 246 243 240 239 236 236 236 235 236 237 233 224 226 223 224 221 219 219 223 221 224 223 226 227 228 228 230 231 233 237 239 242 240 239 239 239 239 237 242 250 258 261 264 266
243 241 237 235 235 235 235 235 235 235 233 233 226 224 224 223 223 221 220 221 225 225 224 227 231 230 232 235 238 238 240 242 242 244 243 239 240 242 245 249 253 256 259 260 263
Height
10702 10699 10697 10694 10688 10686 10685 10683 10681 10679 10678 10675 10673 10668 10668 10667 10663 10664 10665 10668 10674 10679 10681 10686 10690 10695 10700 10701 10700 10700 10700 10698 10697 10697 10697 10697 10698 10694 10688 10681 10674 10667 10662 10655 10649
10685 10683 10680 10677 10673 10671 10669 10666 10664 10661 10658 10655 10652 10650 10645 10646 10641 10644 10647 10652 10658 10664 10669 10675 10680 10685 10690 10692 10692 10692 10691 10691 10691 10691 10691 10692 10692 10689 10684 10677 10670 10662 10657 10651 10645
10668 10665 10662 10660 10658 10655 10651 10646 10642 10639 10636 10631 10627 10622 10620 10623 10619 10625 10629 10635 10641 10649 10655 10663 10670 10675 10681 10684 10684 10684 10684 10685 10684 10685 10686 10686 10686 10683 10679 10673 10668 10660 10653 10648 10641
10654 10649 10646 10641 10640 10637 10632 10626 10620 10619 10612 10608 10598 10595 10595 10600 10602 10605 10613 10619 10625 10634 10641 10650 10660 10665 10671 10675 10676 10677 10676 10678 10678 10679 10680 10680 10680 10678 10674 10669 10664 10658 10650 10644 10638
10636 10632 10629 10625 10622 10619 10613 10607 10601 10593 10592 10583 10576 10574 10576 10582 10582 10590 10596 10603 10611 10621 10630 10640 10649 10656 10661 10666 10668 10670 10668 10671 10671 10672 10674 10674 10674 10672 10669 10665 10660 10655 10649 10641 10635
10618 10614 10611 10608 10604 10599 10594 10590 10585 10576 10571 10562 10558 10556 10559 10565 10566 10574 10581 10590 10598 10610 10620 10629 10638 10647 10652 10657 10660 10664 10661 10663 10666 10666 10667 10667 10668 10667 10664 10662 10658 10652 10646 10640 10633
10599 10596 10594 10591 10585 10581 10577 10568 10564 10561 10552 10543 10540 10538 10542 10542 10554 10560 10566 10578 10588 10600 10611 10620 10630 10638 10642 10648 10651 10655 10655 10656 10659 10660 10660 10661 10661 10661 10659 10657 10655 10649 10644 10641 10635
10581 10577 10574 10571 10566 10563 10558 10552 10548 10543 10533 10528 10524 10524 10527 10529 10542 10547 10557 10568 10577 10588 10600 10611 10620 10628 10633 10638 10643 10647 10649 10649 10652 10653 10654 10655 10656 10655 10654 10651 10650 10646 10642 10639 10633
10563 10560 10556 10551 10548 10545 10538 10534 10533 10526 10519 10513 10511 10515 10516 10523 10530 10538 10549 10559 10569 10580 10593 10603 10611 10618 10625 10629 10634 10637 10640 10643 10646 10646 10647 10648 10650 10648 10648 10646 10644 10642 10638 10636 10632
10543 10541 10538 10533 10531 10529 10523 10521 10520 10510 10506 10501 10503 10507 10511 10518 10524 10533 10541 10551 10561 10572 10585 10595 10602 10610 10616 10620 10621 10630 10635 10637 10638 10640 10641 10642 10644 10643 10642 10641 10639 10638 10635 10632 10629
10522 10522 10518 10514 10512 10512 10506 10505 10507 10498 10493 10494 10498 10499 10505 10513 10521 10527 10535 10543 10553 10566 10576 10583 10594 10603 10596 10609 10619 10625 10626 10628 10631 10634 10635 10636 10638 10637 10636 10636 10634 10632 10631 10628 10626
10503 10502 10499 10493 10493 10494 10492 10492 10492 10486 10479 10486 10489 10492 10501 10509 10514 10519 10527 10536 10544 10556 10563 10578 10588 10578 10593 10604 10611 10615 10616 10620 10626 10629 10629 10630 10631 10632 10631 10630 10629 10628 10626 10625 10622
10483 10484 10480 10474 10473 10475 10476 10479 10477 10472 10469 10477 10479 10486 10493 10500 10505 10513 10520 10526 10535 10546 10557 10566 10567 10573 10586 10596 10603 10605 10608 10613 10621 10623 10624 10623 10622 10624 10625 10625 10625 10624 10622 10620 10618
10463 10464 10461 10455 10454 10456 10459 10462 10463 10458 10460 10465 10472 10477 10485 10490 10496 10506 10513 10520 10530 10538 10547 10559 10561 10569 10578 10587 10592 10597 10597 10607 10614 10618 10618 10617 10614 10617 10619 10621 10621 10620 10619 10616 10615
10441 10442 10441 10436 10434 10438 10442 10446 10447 10443 10450 10454 10461 10468 10474 10481 10488 10499 10506 10513 10522 10528 10539 10550 10550 10557 10568 10572 10581 10583 10592 10601 10608 10611 10611 10609 10608 10611 10613 10615 10616 10616 10615 10612 10610
10417 10420 10419 10417 10416 10419 10422 10428 10430 10430 10435 10442 10445 10454 10462 10470 10478 10486 10494 10502 10508 10517 10528 10536 10540 10548 10559 10562 10572 10578 10585 10593 10597 10602 10605 10601 10606 10597 10606 10608 10609 10610 10610 10608 10606
10393 10398 10396 10395 10397 10400 10403 10411 10415 10416 10422 10428 10432 10439 10448 10457 10466 10476 10483 10490 10497 10508 10519 10524 10529 10537 10546 10554 10562 10571 10574 10581 10585 10593 10592 10596 10601 10593 10595 10600 10602 10602 10603 10602 10602
10370 10374 10374 10373 10376 10379 10386 10392 10399 10401 10404 10412 10417 10424 10433 10441 10451 10462 10473 10480 10487 10496 10504 10513 10519 10528 10535 10542 10547 10553 10559 10570 10577 10582 10583 10591 10597 10588 10586 10589 10593 10595 10596 10596 10597
10346 10350 10349 10352 10354 10359 10366 10375 10379 10382 10384 10393 10400 10408 10418 10427 10436 10447 10460 10469 10477 10485 10494 10501 10509 10516 10523 10528 10535 10544 10555 10557 10566 10572 10576 10581 10585 10582 10578 10579 10584 10587 10589 10589 10589
10321 10325 10323 10331 10332 10338 10346 10355 10356 10361 10367 10375 10384 10392 10401 10411 10421 10433 10447 10456 10465 10472 10480 10489 10496 10503 10509 10516 10526 10536 10544 10550 10558 10564 10567 10570 10572 10574 10568 10569 10575 10579 10579 10582 10581
10293 10298 10299 10306 10313 10321 10328 10332 10335 10338 10349 10357 10367 10378 10385 10394 10406 10418 10432 10442 10453 10460 10468 10474 10483 10491 10499 10509 10514 10523 10533 10539 10546 10552 10556 10560 10562 10562 10561 10562 10564 10569 10570 10572 10573
10267 10275 10276 10283 10295 10304 10307 10310 10314 10315 10328 10336 10345 10356 10367 10378 10389 10402 10415 10427 10438 10448 10456 10464 10471 10479 10486 10496 10502 10510 10520 10527 10534 10541 10544 10548 10549 10550 10551 10552 10553 10556 10556 10559 10563
10243 10250 10255 10262 10276 10280 10284 10290 10296 10296 10305 10318 10325 10337 10348 10359 10372 10385 10398 10410 10423 10433 10443 10449 10461 10467 10475 10484 10491 10499 10506 10513 10520 10525 10532 10535 10538 10540 10540 10538 10541 10543 10548 10550 10551
10220 10230 10233 10245 10249 10257 10262 10270 10277 10275 10289 10301 10310 10319 10329 10341 10357 10370 10382 10396 10406 10417 10428 10437 10447 10455 10462 10469 10478 10485 10492 10497 10504 10511 10516 10522 10525 10528 10528 10530 10529 10534 10535 10540 10541
10201 10209 10214 10221 10228 10234 10241 10253 10256 10259 10265 10282 10296 10302 10309 10322 10340 10354 10365 10379 10392 10403 10413 10423 10434 10440 10449 10456 10463 10470 10476 10483 10490 10496 10501 10504 10511 10514 10517 10520 10521 10524 10525 10526 10530
10181 10186 10192 10200 10207 10214 10223 10230 10233 10236 10249 10263 10275 10281 10295 10309 10319 10333 10351 10365 10379 10390 10400 10409 10419 10426 10433 10440 10447 10454 10462 10469 10474 10478 10484 10488 10496 10500 10508 10511 10511 10509 10511 10514 10515
10161 10166 10175 10180 10187 10195 10200 10205 10212 10224 10237 10246 10254 10265 10277 10286 10305 10321 10339 10350 10360 10371 10384 10393 10402 10409 10417 10425 10431 10442 10447 10450 10455 10459 10464 10473 10480 10487 10492 10496 10498 10495 10494 10499 10503